Regional Weather Roundup
Issued by NWS

Home | Current Version | Previous Version | Graphics & Text | Print | Product List | Glossary Off
Versions: 1 2 3 4 5 6 7 8 9 10 11 12 13 14 15 16 17 18 19 20 21 22 23 24 25 26 27 28 29 30 31 32 33 34 35 36 37 38 39 40 41 42 43 44 45 46 47 48 49 50

000
ASUS43 KLSX 201159
RWRMO

WEATHER SUMMARY FOR MISSOURI
NATIONAL WEATHER SERVICE SPRINGFIELD MO
700 AM CDT SUN APR 20 2014

NOTE: "FAIR" INDICATES FEW OR NO CLOUDS BELOW 12,000 FEET WITH NO
       SIGNIFICANT WEATHER AND/OR OBSTRUCTIONS TO VISIBILITY.
       CURRENT SKY AND/OR WEATHER CONDITIONS ARE NOT AVAILABLE FOR
       CHILLICOTHE AND FARMINGTON.

MOZ001>031-035>038-043-044-053-054-201300-
...NORTHERN AND WESTERN MISSOURI...

CITY           SKY/WX    TMP DP  RH WIND       PRES   REMARKS
KANSAS CTY INT PTCLDY    55  46  71 S13       30.09R
6HR MIN TEMP:  53; 6HR MAX TEMP:  60;

KANSAS C DTWN  PTCLDY    60  46  59 S7        30.09R
6HR MIN TEMP:  59; 6HR MAX TEMP:  66;

LEE`S SUMMIT   MOCLDY    58  45  62 S9        30.11R
6HR MIN TEMP:  58; 6HR MAX TEMP:  63;

ST JOSEPH      PTCLDY    56  46  69 S5        30.06F
6HR MIN TEMP:  54; 6HR MAX TEMP:  60;

CHILLICOTHE      N/A     56  43  61 S5        30.11R
6HR MIN TEMP:  52; 6HR MAX TEMP:  57;

KIRKSVILLE     PTCLDY    48  41  76 S7        30.13R
6HR MIN TEMP:  48; 6HR MAX TEMP:  52;


$$
MOZ066>068-077>081-088>096-101>105-201300-
...SOUTHWEST MISSOURI...

CITY           SKY/WX    TMP DP  RH WIND       PRES   REMARKS
SPRINGFIELD    CLEAR     55  47  74 SE10      30.17R
6HR MIN TEMP:  55; 6HR MAX TEMP:  60;

JOPLIN         PTCLDY    57  48  72 S7        30.15R
6HR MIN TEMP:  56; 6HR MAX TEMP:  61;


$$
MOZ032>034-039>042-045>050-055>058-069>072-201300-
...CENTRAL MISSOURI...

CITY           SKY/WX    TMP DP  RH WIND       PRES   REMARKS
COLUMBIA       MOCLDY    55  42  61 S8        30.16R
6HR MIN TEMP:  54; 6HR MAX TEMP:  59;

JEFFERSON CITY MOCLDY    53  42  66 E5        30.16R
6HR MIN TEMP:  50; 6HR MAX TEMP:  62;

ROLLA          MOCLDY    53  42  66 SE7       30.17S
6HR MIN TEMP:  53; 6HR MAX TEMP:  60;

SEDALIA        MOCLDY    57  46  66 S9        30.14S
6HR MIN TEMP:  56; 6HR MAX TEMP:  60;

OSAGE BEACH    MOCLDY    55  41  58 S8        30.18S

$$
MOZ051-052-059>065-201300-
...EAST CENTRAL MISSOURI...

CITY           SKY/WX    TMP DP  RH WIND       PRES   REMARKS
ST LOUIS INTL  MOCLDY    52  41  66 E3        30.20S
6HR MIN TEMP:  52; 6HR MAX TEMP:  63;

SPIRIT OF STL  PTCLDY    45  42  89 CALM      30.19R
6HR MIN TEMP:  42; 6HR MAX TEMP:  56;

ST CHARLES     CLEAR     48  43  82 E5        30.19S
6HR MIN TEMP:  46; 6HR MAX TEMP:  56;


$$
MOZ072>076-082>087-097>100-106>115-201300-
...SOUTH CENTRAL AND SOUTHEAST MISSOURI...

CITY           SKY/WX    TMP DP  RH WIND       PRES   REMARKS
CAPE GIRARDEAU CLEAR     46  43  89 CALM      30.21R
6HR MIN TEMP:  45; 6HR MAX TEMP:  53;

FARMINGTON     CLEAR     46  39  76 CALM      30.24R
6HR MIN TEMP:  45; 6HR MAX TEMP:  54;

POPLAR BLUFF   PTCLDY    50  42  74 CALM      30.20R
6HR MIN TEMP:  48; 6HR MAX TEMP:  55;

WEST PLAINS    MOCLDY    51  42  71 CALM      30.21R
6HR MIN TEMP:  47; 6HR MAX TEMP:  52;


$$



USA.gov is the U.S. government's official web portal to all federal, state and local government web resources and services.